Location: Unspecified
(0.0000°N, 0.0000°E)
Time: 03:56:20
(UTC+00:00)

Courier 1B Rocket - Visible Passes

Search period start: 25 April 2014 00:00
Search period end: 05 May 2014 00:00
Orbit: 921 x 1202 km, 28.2° (Epoch: 24 April)

Date Brightness Start Highest point End Pass type
(mag) Time Alt. Az. Time Alt. Az. Time Alt. Az.
25 Apr 7.6 02:32:19 15° NE 02:32:19 15° NE 02:33:27 10° NE visible
25 Apr 7.1 04:18:41 13° NW 04:20:43 14° NNW 04:24:18 10° N visible
26 Apr 7.1 03:21:22 19° N 03:21:22 19° N 03:24:35 10° NNE visible
27 Apr 7.8 02:24:01 11° NNE 02:24:01 11° NNE 02:24:21 10° NNE visible
28 Apr 7.5 03:12:59 13° N 03:12:59 13° N 03:14:53 10° N visible
30 Apr 7.4 20:13:43 10° SSW 20:14:08 11° SSW 20:14:08 11° SSW visible
01 May 7.0 19:14:16 10° S 19:17:12 13° SSE 19:17:12 13° SSE visible
02 May 6.8 20:04:23 10° SSW 20:06:46 19° SSW 20:06:46 19° SSW visible
03 May 6.5 19:04:24 10° SSW 19:09:02 19° SSE 19:10:02 18° SE visible
03 May 7.5 20:55:54 10° SW 20:56:26 13° SW 20:56:26 13° SW visible
04 May 6.0 19:55:20 10° SW 19:59:49 35° S 19:59:49 35° S visible
